Weather in Muradym

Russia / Republic of Bashkortostan     53°56′41″N   55°31′09″E
temp.,
°C
wind,
m/s
gust,
m/s
humid.,
%
clouds,
%
prec.,
mm/h
press.,
hPa
HPBL,
m
25 february, thu
thu2523:00−23nnw7149499 0.0 1027385
02:00−26nnw5109784 0.0 1030192
05:00−29nw469968 0.0 103192
08:00−30nw2310051 0.0 103323
11:00−27wnw119639 0.0 103352
14:00−23sw22915 0.0 1032183
17:00−23s23923 0.0 103159
20:00−25s349544 0.0 103045
26 february, fri
fri2623:00−24sse488972 0.0 1029166
02:00−23s61193100 0.0 1028293
05:00−22sse6119497 0.1 1027331
08:00−23sse5109495 0.1 1026331
11:00−22sse6119494 0.1 1025341
14:00−18sse6109196 0.0 1023447
17:00−17sse4109195 0.0 1022438
20:00−20sse499555 0.0 1020190
27 february, sat
sat2723:00−18sse6159129 0.0 1019376
02:00−18sse8158987 0.0 1015390
05:00−16sse8168994 0.0 1012460
08:00−13sse101894100 1.8 1007552
11:00−11sse91592100 3.8 1005608
14:00−9sse91492100 0.4 1004537
17:00−6sse81393100 1.1 1003508
20:00−5sse61095100 0.3 1002275
28 february, sun
sun2823:00−5sse369798 0.5 1003115
02:00−3s359695 0.3 1002115
05:00−2s249798 0.6 1002122
08:00−4s349795 0.3 100274
11:00−2ssw359697 0.7 1002247
14:00−1ssw3593100 0.1 1003396
17:00−1sw3596100 0.3 1003379
20:00−3ssw239795 0.1 100555
1 march, mon
mon123:00−3sw239895 0.6 100785
02:00−6nw3597100 0.5 1008100
05:00−10nnw359698 0.8 1009137
08:00−12nnw469686 0.3 1011175
11:00−13nnw359584 0.4 1012237
14:00−12nnw459495 0.1 1014297
17:00−12nnw469497 0.1 1015316
20:00−16nnw489699 0.1 1017233